Terminal Aerodrome Forecast
Issued by NWS

Home | Current Version | Previous Version | Text Only | Print | Product List | Glossary On
Versions: 1 2 3 4 5 6 7 8 9 10 11 12
000
FTUS46 KMTR 210500
TAFSTS
TAF
KSTS 210520Z 2106/2206 VRB04KT P6SM SCT200
     FM212000 19008KT P6SM BKN120
     FM220400 15003KT P6SM SCT030 OVC080=

USA.gov is the U.S. government's official web portal to all federal, state and local government web resources and services.